Hourly Data Report for October 15, 2015

All times are specified in Local Standard Time (LST). Add 1 hour to adjust for Daylight Saving Time where and when it is observed.

CLYDE RIVER A
NUNAVUT

70°29'09.000" N
68°31'01.000" W
26.50 m
2400804
71090
YCY

Download Data

Hourly Data (October 2015)
Hourly Data Report for October 15, 2015
Temp Definition
°C
Dew Point Temp Definition
°C
Rel Hum Definition
%
Wind Dir Definition
10's deg

Wind Spd Definition
km/h
Visibility Definition
km
Stn Press Definition
kPa
Hmdx Definition


Wind Chill Definition


Weather Definition


TIME
00:00 Legend Double Dagger -6.4 -9.9 76 29 26 16.1 98.16   -14 LegendNANA
01:00 Legend Double Dagger -6.4 -9.5 79 28 22 16.1 98.11   -14 LegendNANA
02:00 Legend Double Dagger -6.4 -9.4 80 28 24 16.1 98.07   -14 LegendNANA
03:00 Legend Double Dagger -6.6 -10.7 73 27 26 16.1 98.04   -15 LegendNANA
04:00 Legend Double Dagger -7.5 -11.0 76 25 9 16.1 98.04   -12 LegendNANA
05:00 Legend Double Dagger -11.6 -14.4 80 27 5 16.1 98.04   -15 LegendNANA
06:00 Legend Double Dagger -9.9 -13.8 73 23 11 16.1 98.04   -15 LegendNANA
07:00 Legend Double Dagger -11.6 -15.0 76 25 8 16.1 98.04   -16 LegendNANA
08:00 Legend Double Dagger -7.4 -12.0 70 27 9 16.1 98.05   -12 LegendNANA
09:00 Legend Double Dagger -5.7 -10.4 70 26 9 16.1 98.09   -10 LegendNANA
10:00 Legend Double Dagger -4.2 -5.2 93 25 21 1.6 98.14   -11 Snow
11:00 Legend Double Dagger -0.9 -1.8 94 33 34 3.2 98.13   -8 Snow
12:00 Legend Double Dagger -1.2 -2.3 92 32 43 4.8 98.24   -9 Snow
13:00 Legend Double Dagger -1.4 -2.4 93 33 46 2.8 98.37   -10 Snow
14:00 Legend Double Dagger -2.3 -3.4 92 32 39 6.4 98.55   -10 Snow
15:00 Legend Double Dagger -2.6 -4.3 88 31 22 16.1 98.68   -9 LegendNANA
16:00 Legend Double Dagger -2.6 -3.9 91 30 22 16.1 98.77   -9 Snow
17:00 Legend Double Dagger -4.7 -6.2 89 28 11 16.1 98.82   -9 LegendNANA
18:00 Legend Double Dagger -4.6 -6.5 87 21 9 16.1 98.85   -8 LegendNANA
19:00 Legend Double Dagger -2.8 -7.0 73 20 26 16.1 98.90   -10 LegendNANA
20:00 Legend Double Dagger -3.5 -6.6 79 19 37 16.1 98.88   -12 LegendNANA
21:00 Legend Double Dagger -2.8 -5.9 80 19 22 16.1 98.89   -9 LegendNANA
22:00 Legend Double Dagger -2.8 -6.6 75 20 22 16.1 98.92   -9 LegendNANA
23:00 Legend Double Dagger -3.1 -5.9 81 23 43 14.5 98.88   -12 LegendNANA

Notes on Data Quality.

Legend

  • E = Estimated
  • M = Missing
  • NA = Not Available
  • ‡ = Partner data that is not subject to review by the National Climate Archives
Date modified: